GW3882 Weather Reports


time (UTC)temp
C
wind
direction
speed
KPH
gust
KPH
rain 1hr
cm
rain 24hr
cm
rain mn
cm
humidity
%
barometer
mb
20260504081506 7 355 0.0 0.0 0.00 0.00 0.00 60 1014.1
20260504044528 12 49 0.0 0.0 0.00 0.00 0.00 42 1009.8
20260504043042 12 13 0.0 0.0 0.00 0.00 0.00 42 1009.3
20260504041535 12 19 0.0 0.0 0.00 0.00 0.00 41 1009.0
20260504040027 13 355 0.0 0.0 0.00 0.00 0.00 39 1008.6
20260504034527 13 340 0.0 0.0 0.00 0.00 0.00 39 1008.1
20260504033029 13 38 0.0 0.0 0.00 0.00 0.00 38 1008.1
20260504031527 14 36 0.0 0.0 0.00 0.00 0.00 38 1008.0
20260504030027 15 38 0.0 0.0 0.00 0.00 0.00 35 1007.8
20260504024524 15 37 0.0 0.0 0.00 0.00 0.00 32 1007.6
20260504023027 16 5 0.0 0.0 0.00 0.00 0.00 29 1007.5
20260504021524 17 355 0.0 0.0 0.00 0.00 0.00 26 1007.4
20260504020025 18 11 0.0 0.0 0.00 0.00 0.00 24 1007.5
20260504014531 19 303 0.0 0.0 0.00 0.00 0.00 23 1007.5
20260504013022 20 52 0.0 0.0 0.00 0.00 0.00 23 1007.6
20260504011523 21 338 0.0 0.0 0.00 0.00 0.00 22 1007.5
20260504010018 21 323 0.0 0.0 0.00 0.00 0.00 21 1007.6
20260504004521 21 347 0.0 0.0 0.00 0.00 0.00 20 1007.6
20260504003015 21 326 0.0 0.0 0.00 0.00 0.00 21 1007.8
20260504001515 22 325 0.0 0.0 0.00 0.00 0.00 21 1007.8
20260504000013 22 282 0.0 0.0 0.00 0.00 0.00 20 1008.0
20260503234516 22 316 0.0 0.0 0.00 0.00 0.00 20 1007.9
20260503233012 22 312 0.0 0.0 0.00 0.00 0.00 20 1007.9
20260503231516 22 289 0.0 0.0 0.00 0.00 0.00 20 1008.0
20260503230012 22 346 0.0 0.0 0.00 0.00 0.00 22 1008.1
20260503224511 22 299 0.0 0.0 0.00 0.00 0.00 20 1008.2
20260503223008 22 329 0.0 0.0 0.00 0.00 0.00 20 1008.4
20260503221505 22 259 0.0 0.0 0.00 0.00 0.00 21 1008.5
20260503220003 22 277 0.0 0.0 0.00 0.00 0.00 21 1008.6
20260503214501 22 324 0.0 0.0 0.00 0.00 0.00 21 1008.7
20260503213100 21 302 0.0 0.0 0.00 0.00 0.00 21 1008.8
20260503211558 22 264 0.0 0.0 0.00 0.00 0.00 22 1009.0
20260503210057 22 309 0.0 0.0 0.00 0.00 0.00 21 1009.2
20260503204554 21 295 0.0 0.0 0.00 0.00 0.00 21 1009.3
20260503203056 21 305 0.0 0.0 0.00 0.00 0.00 21 1009.6
20260503201549 21 313 0.0 0.0 0.00 0.00 0.00 21 1010.0
20260503200047 22 262 0.0 0.0 0.00 0.00 0.00 21 1010.0
20260503194545 21 303 0.0 0.0 0.00 0.00 0.00 21 1010.1
20260503193046 20 273 0.0 0.0 0.00 0.00 0.00 22 1010.2
20260503191541 21 294 0.0 0.0 0.00 0.00 0.00 22 1010.5
20260503190045 20 288 0.0 0.0 0.00 0.00 0.00 22 1010.5
20260503184538 21 290 0.0 0.0 0.00 0.00 0.00 22 1010.7
20260503183034 21 259 0.0 0.0 0.00 0.00 0.00 23 1010.9
20260503181531 20 309 0.0 0.0 0.00 0.00 0.00 24 1011.2
20260503180042 20 298 0.0 0.0 0.00 0.00 0.00 25 1011.5
20260503174531 20 273 0.0 0.0 0.00 0.00 0.00 27 1011.6
20260503173026 19 292 0.0 0.0 0.00 0.00 0.00 26 1011.9
20260503171527 20 265 0.0 0.0 0.00 0.00 0.00 26 1011.8